When you browse on this site, cookies collect data to enhance your experience and personalize the content and advertising you see.
Visit our Privacy Policy to learn more. By continuing to use the site, you agree to this use of cookies and data.
  • In Hungary
  • List of Countries
  • For 7 days
  • Water Temperature
  • Satellite Maps
  • Weather Map
  • News
  • Weather Widgets
  • user-avatar
    Login

    Hourly Weather Narwik

    Today, 24 March, Sunday

    Time Temperature Precipitation Wind Pressure Humidity
    00:00 +1°C° 1.3 mm 5 mps 722 mmHg 95%
    01:00 0°C° 0 mm 7 mps 724 mmHg 95%
    02:00 0°C° 1.2 mm 7 mps 725 mmHg 95%
    03:00 0°C° 1.2 mm 8 mps 726 mmHg 94%
    04:00 0°C° 1.2 mm 8 mps 727 mmHg 93%
    05:00 0°C° 1.2 mm 8 mps 728 mmHg 93%
    06:00 0°C° 1.2 mm 7 mps 729 mmHg 94%
    07:00 0°C° 1.2 mm 7 mps 730 mmHg 94%
    08:00 -1°C° 1.3 mm 7 mps 732 mmHg 94%
    09:00 -1°C° 1.3 mm 7 mps 733 mmHg 94%
    10:00 -2°C° 1.3 mm 7 mps 734 mmHg 93%
    11:00 -2°C° 0.8 mm 6 mps 735 mmHg 93%
    12:00 -2°C° 0.8 mm 6 mps 736 mmHg 92%
    13:00 -2°C° 0.8 mm 5 mps 737 mmHg 92%
    14:00 -2°C° 0.6 mm 5 mps 738 mmHg 92%
    15:00 -2°C° 0.6 mm 4 mps 738 mmHg 92%
    16:00 -2°C° 0.6 mm 4 mps 739 mmHg 92%
    17:00 -3°C° 0.4 mm 4 mps 740 mmHg 92%
    18:00 -2°C° 0.4 mm 3 mps 740 mmHg 92%
    19:00 -2°C° 0.4 mm 3 mps 741 mmHg 91%
    20:00 -2°C° 0.2 mm 3 mps 742 mmHg 90%
    21:00 -4°C° 0.2 mm 3 mps 742 mmHg 89%
    22:00 -4°C° 0.2 mm 3 mps 743 mmHg 89%
    23:00 -4°C° 0.2 mm 3 mps 744 mmHg 89%

    Tomorrow, 25 March, Monday

    Time Temperature Precipitation Wind Pressure Humidity
    00:00 -3°C° 0.2 mm 2 mps 744 mmHg 89%
    01:00 -3°C° 0.2 mm 2 mps 745 mmHg 89%
    02:00 -4°C° 0.2 mm 2 mps 745 mmHg 91%
    03:00 -4°C° 0.2 mm 2 mps 746 mmHg 93%
    04:00 -4°C° 0.2 mm 2 mps 746 mmHg 95%
    05:00 -5°C° 0.5 mm 3 mps 746 mmHg 94%
    06:00 -5°C° 0.5 mm 3 mps 746 mmHg 93%
    07:00 -4°C° 0.5 mm 3 mps 746 mmHg 92%
    08:00 -5°C° 0.6 mm 3 mps 746 mmHg 93%
    09:00 -5°C° 0.6 mm 4 mps 747 mmHg 93%
    10:00 -5°C° 0.6 mm 4 mps 747 mmHg 94%
    11:00 -5°C° 0.5 mm 3 mps 747 mmHg 90%
    12:00 -5°C° 0.5 mm 3 mps 747 mmHg 86%
    13:00 -4°C° 0.5 mm 2 mps 747 mmHg 82%
    14:00 -6°C° 0.3 mm 3 mps 747 mmHg 84%
    15:00 -7°C° 0.3 mm 3 mps 747 mmHg 86%
    16:00 -7°C° 0.3 mm 3 mps 747 mmHg 88%
    17:00 -8°C° 0.1 mm 2 mps 748 mmHg 86%
    18:00 -9°C° 0.1 mm 2 mps 748 mmHg 83%
    19:00 -9°C° 0.1 mm 1 mps 749 mmHg 81%
    20:00 -9°C° 0.1 mm 1 mps 750 mmHg 84%
    21:00 -10°C° 0.1 mm 2 mps 750 mmHg 88%
    22:00 -9°C° 0.1 mm 2 mps 751 mmHg 92%
    23:00 -9°C° 0.1 mm 2 mps 751 mmHg 92%

    Day after tomorrow, 26 March, Tuesday

    Time Temperature Precipitation Wind Pressure Humidity
    00:00 -9°C° 0.1 mm 2 mps 752 mmHg 93%
    01:00 -8°C° 0.1 mm 2 mps 752 mmHg 94%
    02:00 -8°C° 0.1 mm 2 mps 753 mmHg 94%
    03:00 -8°C° 0.1 mm 2 mps 753 mmHg 93%
    04:00 -7°C° 0.1 mm 2 mps 753 mmHg 93%
    05:00 -7°C° 0.1 mm 2 mps 753 mmHg 93%
    06:00 -7°C° 0.1 mm 2 mps 753 mmHg 93%
    07:00 -7°C° 0.1 mm 2 mps 753 mmHg 92%
    08:00 -7°C° 0.1 mm 3 mps 753 mmHg 90%
    09:00 -7°C° 0.1 mm 3 mps 753 mmHg 88%
    10:00 -6°C° 0.1 mm 3 mps 753 mmHg 86%
    11:00 -6°C° 0 mm 3 mps 752 mmHg 83%
    12:00 -5°C° 0 mm 3 mps 752 mmHg 81%
    13:00 -5°C° 0 mm 3 mps 751 mmHg 78%
    14:00 -5°C° 0 mm 3 mps 751 mmHg 78%
    15:00 -5°C° 0 mm 3 mps 750 mmHg 77%
    16:00 -6°C° 0 mm 3 mps 750 mmHg 77%
    17:00 -7°C° 0 mm 3 mps 749 mmHg 75%
    18:00 -8°C° 0 mm 3 mps 749 mmHg 74%
    19:00 -10°C° 0 mm 3 mps 748 mmHg 72%
    20:00 -10°C° 0 mm 4 mps 748 mmHg 71%
    21:00 -9°C° 0 mm 4 mps 747 mmHg 70%
    22:00 -9°C° 0 mm 4 mps 746 mmHg 70%
    23:00 -8°C° 0.1 mm 4 mps 746 mmHg 75%

    27 March, Wednesday

    Time Temperature Precipitation Wind Pressure Humidity
    00:00 -7°C° 0.1 mm 4 mps 745 mmHg 80%
    01:00 -5°C° 0.1 mm 4 mps 744 mmHg 85%
    02:00 -5°C° 0.5 mm 4 mps 744 mmHg 88%
    03:00 -4°C° 0.5 mm 4 mps 744 mmHg 91%
    04:00 -3°C° 0.5 mm 4 mps 745 mmHg 94%
    05:00 -2°C° 0.3 mm 4 mps 745 mmHg 92%
    06:00 -2°C° 0.3 mm 5 mps 746 mmHg 90%
    07:00 -2°C° 0.3 mm 6 mps 747 mmHg 89%
    08:00 -2°C° 0.3 mm 6 mps 747 mmHg 89%
    09:00 -2°C° 0.3 mm 7 mps 748 mmHg 89%
    10:00 -2°C° 0.3 mm 7 mps 748 mmHg 90%
    11:00 -2°C° 0.3 mm 8 mps 748 mmHg 90%
    12:00 -3°C° 0.3 mm 10 mps 748 mmHg 90%
    13:00 -3°C° 0.3 mm 11 mps 748 mmHg 90%
    14:00 -3°C° 0.4 mm 12 mps 748 mmHg 91%
    15:00 -2°C° 0.4 mm 12 mps 747 mmHg 92%
    16:00 -2°C° 0.4 mm 13 mps 747 mmHg 93%
    17:00 -2°C° 0.8 mm 12 mps 747 mmHg 93%
    18:00 -2°C° 0.8 mm 12 mps 746 mmHg 94%
    19:00 -1°C° 0.8 mm 12 mps 746 mmHg 94%
    20:00 -2°C° 0.3 mm 10 mps 746 mmHg 94%
    21:00 -1°C° 0.3 mm 9 mps 746 mmHg 93%
    22:00 -1°C° 0.3 mm 7 mps 746 mmHg 93%
    23:00 -1°C° 0.4 mm 7 mps 746 mmHg 93%

    28 March, Thursday

    Time Temperature Precipitation Wind Pressure Humidity
    00:00 -1°C° 0.4 mm 6 mps 746 mmHg 94%
    01:00 -1°C° 0.4 mm 6 mps 745 mmHg 94%
    02:00 0°C° 0.3 mm 5 mps 745 mmHg 95%
    03:00 0°C° 0.3 mm 4 mps 744 mmHg 95%
    04:00 +1°C° 0.3 mm 3 mps 743 mmHg 95%
    05:00 +1°C° 0.4 mm 3 mps 743 mmHg 95%
    06:00 +2°C° 0.4 mm 2 mps 742 mmHg 95%
    07:00 +2°C° 0.4 mm 2 mps 741 mmHg 96%
    08:00 +2°C° 1.1 mm 2 mps 741 mmHg 96%
    09:00 +2°C° 1.1 mm 3 mps 740 mmHg 96%
    10:00 +2°C° 1.1 mm 3 mps 740 mmHg 96%
    11:00 +1°C° 1.5 mm 5 mps 741 mmHg 96%
    12:00 0°C° 1.5 mm 7 mps 741 mmHg 97%
    13:00 0°C° 1.5 mm 9 mps 742 mmHg 97%
    14:00 -2°C° 1 mm 10 mps 743 mmHg 93%
    15:00 -3°C° 1 mm 11 mps 745 mmHg 90%
    16:00 -5°C° 1 mm 12 mps 747 mmHg 86%
    17:00 -4°C° 0.3 mm 10 mps 748 mmHg 86%
    18:00 -3°C° 0.3 mm 7 mps 749 mmHg 86%
    19:00 -4°C° 0.3 mm 5 mps 751 mmHg 86%
    20:00 -3°C° 0.2 mm 4 mps 751 mmHg 88%
    21:00 -3°C° 0.2 mm 4 mps 752 mmHg 90%
    22:00 -1°C° 0.2 mm 3 mps 752 mmHg 92%
    23:00 -2°C° 0.2 mm 4 mps 751 mmHg 91%

    29 March, Friday

    Time Temperature Precipitation Wind Pressure Humidity
    00:00 -2°C° 0.2 mm 4 mps 751 mmHg 91%
    01:00 -2°C° 0.2 mm 4 mps 750 mmHg 91%
    02:00 -2°C° 0.3 mm 5 mps 749 mmHg 90%
    03:00 -2°C° 0.3 mm 6 mps 747 mmHg 90%
    04:00 -2°C° 0.3 mm 6 mps 746 mmHg 89%
    05:00 -1°C° 0.6 mm 6 mps 745 mmHg 90%
    06:00 +1°C° 0.6 mm 6 mps 743 mmHg 92%
    07:00 +2°C° 0.6 mm 5 mps 742 mmHg 93%
    08:00 +3°C° 1.5 mm 6 mps 741 mmHg 95%
    09:00 +3°C° 1.5 mm 7 mps 740 mmHg 97%
    10:00 +2°C° 1.5 mm 8 mps 738 mmHg 98%
    11:00 +2°C° 1.6 mm 9 mps 738 mmHg 98%
    12:00 +1°C° 1.6 mm 10 mps 737 mmHg 97%
    13:00 +1°C° 1.6 mm 11 mps 737 mmHg 96%
    14:00 0°C° 1.1 mm 9 mps 737 mmHg 95%
    15:00 -1°C° 1.1 mm 8 mps 737 mmHg 93%
    16:00 -1°C° 1.1 mm 7 mps 737 mmHg 92%
    17:00 -3°C° 0.6 mm 10 mps 737 mmHg 86%
    18:00 -5°C° 0.6 mm 13 mps 738 mmHg 81%
    19:00 -5°C° 0.6 mm 16 mps 738 mmHg 75%
    20:00 -5°C° 0.4 mm 15 mps 739 mmHg 78%
    21:00 -7°C° 0.4 mm 15 mps 739 mmHg 80%
    22:00 -7°C° 0.4 mm 15 mps 740 mmHg 83%
    23:00 -6°C° 0.2 mm 14 mps 740 mmHg 81%
    Show more